Location: Aurora Center
(43.5271°N, 98.5894°W)
Time: 08:24:00
(UTC-05:00)

ACS3 Solar Sail - Pass Details

Date: 26 June 2024
Orbit: 992 x 1023 km, 97.4° (Epoch: 11 July)

Event Time Altitude Azimuth Distance (km) Brightness Sun altitude
Exits shadow 22:05:31 - 134° (SE) 2,872 6.6 -7.4°
Reaches altitude 10° 22:05:51 10° 133° (SE) 2,758 6.5 -7.4°
Maximum altitude 22:11:29 38° 68° (ENE) 1,477 5.6 -8.2°
Drops below altitude 10° 22:17:08 10° 3° (N) 2,765 7.8 -8.9°
Sets 22:19:46 0° 355° (N) 3,718 8.7 -9.2°
